Time,TemperatureF,DewpointF,PressureIn,WindDirection,WindDirectionDegrees,WindSpeedMPH,WindSpeedGustMPH,Humidity,HourlyPrecipIn,Conditions,Clouds,dailyrainin,SoftwareType,DateUTC
2013-08-11 00:05:00,82.3,77.0,29.86,East,80,8.0,17.0,84,0.00,,,0.00,weatherlink.com 1.10,2013-08-11 04:05:00,
2013-08-11 00:20:00,82.3,77.0,29.85,East,80,5.0,14.0,85,0.00,,,0.00,weatherlink.com 1.10,2013-08-11 04:20:00,
2013-08-11 00:35:00,82.0,78.0,29.85,ESE,114,9.0,11.0,86,0.00,,,0.00,weatherlink.com 1.10,2013-08-11 04:35:00,
2013-08-11 00:50:00,82.0,78.0,29.84,East,81,3.0,13.0,86,0.00,,,0.00,weatherlink.com 1.10,2013-08-11 04:50:00,
2013-08-11 01:05:00,82.1,78.0,29.84,ENE,78,4.0,11.0,87,0.00,,,0.00,weatherlink.com 1.10,2013-08-11 05:05:00,
2013-08-11 01:20:00,81.5,78.0,29.84,ENE,76,3.0,11.0,88,0.00,,,0.00,weatherlink.com 1.10,2013-08-11 05:20:00,
2013-08-11 01:35:00,81.4,78.0,29.84,ESE,110,8.0,13.0,88,0.00,,,0.00,weatherlink.com 1.10,2013-08-11 05:35:00,
2013-08-11 01:50:00,81.1,77.0,29.84,ENE,76,4.0,14.0,87,0.00,,,0.00,weatherlink.com 1.10,2013-08-11 05:50:00,
2013-08-11 02:05:00,80.7,77.0,29.83,East,79,6.0,13.0,89,0.00,,,0.00,weatherlink.com 1.10,2013-08-11 06:05:00,
2013-08-11 02:21:00,81.4,78.0,29.82,ESE,103,2.0,11.0,88,0.00,,,0.00,weatherlink.com 1.10,2013-08-11 06:21:00,
2013-08-11 02:36:00,81.4,77.0,29.82,ESE,121,4.0,13.0,86,0.00,,,0.00,weatherlink.com 1.10,2013-08-11 06:36:00,
2013-08-11 02:51:00,80.7,75.0,29.82,East,97,9.0,19.0,83,0.00,,,0.00,weatherlink.com 1.10,2013-08-11 06:51:00,
2013-08-11 03:06:00,79.9,74.0,29.82,ENE,78,11.0,15.0,81,0.00,,,0.00,weatherlink.com 1.10,2013-08-11 07:06:00,
2013-08-11 03:21:00,80.5,75.0,29.81,NE,38,5.0,12.0,84,0.00,,,0.00,weatherlink.com 1.10,2013-08-11 07:21:00,
2013-08-11 03:36:00,80.3,76.0,29.82,ENE,58,5.0,13.0,85,0.00,,,0.00,weatherlink.com 1.10,2013-08-11 07:36:00,
2013-08-11 03:51:00,80.4,77.0,29.82,East,95,6.0,15.0,88,0.05,,,0.05,weatherlink.com 1.10,2013-08-11 07:51:00,
2013-08-11 04:06:00,78.9,76.0,29.81,ESE,102,7.0,7.0,91,0.08,,,0.08,weatherlink.com 1.10,2013-08-11 08:06:00,
2013-08-11 04:21:00,78.6,77.0,29.81,East,98,6.0,6.0,93,0.08,,,0.08,weatherlink.com 1.10,2013-08-11 08:21:00,
2013-08-11 04:36:00,79.0,77.0,29.81,East,97,2.0,7.0,94,0.08,,,0.08,weatherlink.com 1.10,2013-08-11 08:36:00,
2013-08-11 04:51:00,78.1,76.0,29.81,ESE,111,7.0,13.0,92,0.01,,,0.08,weatherlink.com 1.10,2013-08-11 08:51:00,
2013-08-11 05:06:00,77.8,75.0,29.81,East,92,3.0,13.0,92,0.00,,,0.08,weatherlink.com 1.10,2013-08-11 09:06:00,
2013-08-11 05:21:00,77.9,76.0,29.81,ENE,77,5.0,10.0,92,0.00,,,0.08,weatherlink.com 1.10,2013-08-11 09:21:00,
2013-08-11 05:36:00,77.9,76.0,29.82,ENE,76,4.0,7.0,92,0.00,,,0.08,weatherlink.com 1.10,2013-08-11 09:36:00,
2013-08-11 05:51:00,78.5,76.0,29.82,ESE,102,2.0,13.0,92,0.00,,,0.08,weatherlink.com 1.10,2013-08-11 09:51:00,
2013-08-11 06:06:00,78.5,75.0,29.83,ENE,71,3.0,15.0,90,0.00,,,0.08,weatherlink.com 1.10,2013-08-11 10:06:00,
2013-08-11 06:21:00,78.3,74.0,29.83,East,85,5.0,9.0,87,0.00,,,0.08,weatherlink.com 1.10,2013-08-11 10:21:00,
2013-08-11 06:36:00,78.8,75.0,29.83,East,98,6.0,9.0,89,0.00,,,0.08,weatherlink.com 1.10,2013-08-11 10:36:00,
2013-08-11 07:06:00,80.3,77.0,29.84,ESE,120,4.0,9.0,90,0.00,,,0.08,weatherlink.com 1.10,2013-08-11 11:06:00,
2013-08-11 07:21:00,81.1,78.0,29.85,ESE,121,8.0,11.0,89,0.00,,,0.08,weatherlink.com 1.10,2013-08-11 11:21:00,
2013-08-11 07:36:00,81.7,78.0,29.84,ESE,109,5.0,10.0,87,0.00,,,0.08,weatherlink.com 1.10,2013-08-11 11:36:00,
2013-08-11 07:51:00,82.5,78.0,29.84,SE,126,6.0,10.0,86,0.00,,,0.08,weatherlink.com 1.10,2013-08-11 11:51:00,
2013-08-11 08:21:00,82.7,78.0,29.85,ESE,105,2.0,14.0,84,0.00,,,0.08,weatherlink.com 1.10,2013-08-11 12:21:00,
2013-08-11 08:36:00,83.2,78.0,29.85,East,88,1.0,14.0,83,0.01,,,0.09,weatherlink.com 1.10,2013-08-11 12:36:00,
2013-08-11 08:51:00,84.3,77.0,29.86,East,96,6.0,17.0,79,0.01,,,0.09,weatherlink.com 1.10,2013-08-11 12:51:00,
2013-08-11 09:06:00,84.8,78.0,29.86,ESE,109,14.0,16.0,79,0.01,,,0.09,weatherlink.com 1.10,2013-08-11 13:06:00,
2013-08-11 09:21:00,85.2,78.0,29.87,East,90,10.0,17.0,78,0.01,,,0.09,weatherlink.com 1.10,2013-08-11 13:21:00,
2013-08-11 09:36:00,85.2,78.0,29.87,SE,133,5.0,15.0,78,0.00,,,0.09,weatherlink.com 1.10,2013-08-11 13:36:00,
2013-08-11 09:51:00,85.4,77.0,29.86,ESE,121,2.0,14.0,75,0.00,,,0.09,weatherlink.com 1.10,2013-08-11 13:51:00,
2013-08-11 10:36:00,87.0,77.0,29.86,East,84,9.0,13.0,73,0.00,,,0.09,weatherlink.com 1.10,2013-08-11 14:36:00,
2013-08-11 10:51:00,87.3,77.0,29.86,East,90,6.0,13.0,72,0.00,,,0.09,weatherlink.com 1.10,2013-08-11 14:51:00,
2013-08-11 11:06:00,87.1,78.0,29.87,NE,51,3.0,17.0,74,0.00,,,0.09,weatherlink.com 1.10,2013-08-11 15:06:00,
2013-08-11 12:06:00,87.1,78.0,29.85,ESE,115,7.0,14.0,73,0.00,,,0.09,weatherlink.com 1.10,2013-08-11 16:06:00,
2013-08-11 12:21:00,87.2,78.0,29.85,NNW,327,2.0,13.0,73,0.00,,,0.09,weatherlink.com 1.10,2013-08-11 16:21:00,
2013-08-11 12:37:00,87.5,76.0,29.85,ENE,74,4.0,11.0,69,0.00,,,0.09,weatherlink.com 1.10,2013-08-11 16:37:00,
2013-08-11 12:52:00,88.9,78.0,29.84,ENE,67,4.0,12.0,70,0.00,,,0.09,weatherlink.com 1.10,2013-08-11 16:52:00,
2013-08-11 13:07:00,87.8,77.0,29.83,East,88,1.0,12.0,71,0.00,,,0.09,weatherlink.com 1.10,2013-08-11 17:07:00,
2013-08-11 13:22:00,87.7,77.0,29.83,East,96,5.0,15.0,71,0.00,,,0.09,weatherlink.com 1.10,2013-08-11 17:22:00,
2013-08-11 13:37:00,88.2,77.0,29.82,East,85,8.0,13.0,69,0.00,,,0.09,weatherlink.com 1.10,2013-08-11 17:37:00,
2013-08-11 13:52:00,87.6,78.0,29.82,North,355,6.0,15.0,73,0.00,,,0.09,weatherlink.com 1.10,2013-08-11 17:52:00,
2013-08-11 14:07:00,87.1,78.0,29.81,East,94,7.0,14.0,74,0.00,,,0.09,weatherlink.com 1.10,2013-08-11 18:07:00,
2013-08-11 14:22:00,86.8,77.0,29.81,NNE,26,7.0,15.0,73,0.00,,,0.09,weatherlink.com 1.10,2013-08-11 18:22:00,
2013-08-11 14:37:00,86.9,77.0,29.80,ENE,70,3.0,14.0,73,0.00,,,0.09,weatherlink.com 1.10,2013-08-11 18:37:00,
2013-08-11 14:52:00,87.3,77.0,29.79,ESE,110,3.0,14.0,72,0.00,,,0.09,weatherlink.com 1.10,2013-08-11 18:52:00,
2013-08-11 15:07:00,86.5,77.0,29.79,ENE,63,10.0,16.0,72,0.00,,,0.09,weatherlink.com 1.10,2013-08-11 19:07:00,
2013-08-11 15:22:00,86.6,77.0,29.78,East,84,8.0,14.0,73,0.00,,,0.09,weatherlink.com 1.10,2013-08-11 19:22:00,
2013-08-11 16:07:00,85.5,78.0,29.78,East,87,9.0,14.0,77,0.00,,,0.09,weatherlink.com 1.10,2013-08-11 20:07:00,
2013-08-11 16:37:00,84.8,77.0,29.78,NNE,24,1.0,11.0,78,0.00,,,0.09,weatherlink.com 1.10,2013-08-11 20:37:00,
2013-08-11 16:52:00,84.8,77.0,29.78,East,91,5.0,11.0,78,0.00,,,0.09,weatherlink.com 1.10,2013-08-11 20:52:00,
2013-08-11 17:07:00,84.5,78.0,29.78,East,93,3.0,12.0,80,0.00,,,0.09,weatherlink.com 1.10,2013-08-11 21:07:00,
2013-08-11 17:22:00,84.3,77.0,29.78,ENE,69,9.0,11.0,79,0.00,,,0.09,weatherlink.com 1.10,2013-08-11 21:22:00,
2013-08-11 17:37:00,84.1,78.0,29.79,ENE,61,5.0,11.0,81,0.00,,,0.09,weatherlink.com 1.10,2013-08-11 21:37:00,
2013-08-11 17:52:00,83.9,78.0,29.80,East,85,11.0,12.0,81,0.00,,,0.09,weatherlink.com 1.10,2013-08-11 21:52:00,
2013-08-11 18:22:00,83.3,77.0,29.80,East,84,7.0,11.0,81,0.00,,,0.09,weatherlink.com 1.10,2013-08-11 22:22:00,
2013-08-11 18:37:00,83.0,77.0,29.81,East,101,3.0,13.0,81,0.00,,,0.09,weatherlink.com 1.10,2013-08-11 22:37:00,
2013-08-11 18:52:00,82.9,77.0,29.81,East,98,7.0,9.0,82,0.00,,,0.09,weatherlink.com 1.10,2013-08-11 22:52:00,
2013-08-11 19:22:00,82.6,76.0,29.82,ENE,67,5.0,13.0,80,0.00,,,0.09,weatherlink.com 1.10,2013-08-11 23:22:00,
2013-08-11 19:52:00,82.4,76.0,29.83,ENE,67,1.0,10.0,82,0.00,,,0.09,weatherlink.com 1.10,2013-08-11 23:52:00,
2013-08-11 20:07:00,82.3,77.0,29.83,ENE,67,7.0,10.0,83,0.00,,,0.09,weatherlink.com 1.10,2013-08-12 00:07:00,
2013-08-11 20:22:00,82.3,77.0,29.84,ENE,73,5.0,11.0,83,0.00,,,0.09,weatherlink.com 1.10,2013-08-12 00:22:00,
2013-08-11 20:37:00,82.3,77.0,29.85,ENE,71,1.0,11.0,83,0.00,,,0.09,weatherlink.com 1.10,2013-08-12 00:37:00,
2013-08-11 20:52:00,82.3,77.0,29.85,East,94,5.0,10.0,84,0.00,,,0.09,weatherlink.com 1.10,2013-08-12 00:52:00,
2013-08-11 21:37:00,82.2,77.0,29.85,East,90,3.0,11.0,85,0.00,,,0.09,weatherlink.com 1.10,2013-08-12 01:37:00,
2013-08-11 21:52:00,82.0,77.0,29.86,East,101,3.0,9.0,84,0.00,,,0.09,weatherlink.com 1.10,2013-08-12 01:52:00,
2013-08-11 22:07:00,82.0,76.0,29.86,ESE,106,3.0,13.0,83,0.00,,,0.09,weatherlink.com 1.10,2013-08-12 02:07:00,
2013-08-11 22:22:00,82.0,76.0,29.87,ESE,104,5.0,10.0,83,0.00,,,0.09,weatherlink.com 1.10,2013-08-12 02:22:00,
2013-08-11 22:37:00,82.0,76.0,29.87,ESE,118,2.0,8.0,83,0.00,,,0.09,weatherlink.com 1.10,2013-08-12 02:37:00,
2013-08-11 22:52:00,82.1,77.0,29.87,East,84,7.0,9.0,84,0.00,,,0.09,weatherlink.com 1.10,2013-08-12 02:52:00,
2013-08-11 23:23:00,82.1,77.0,29.88,East,91,9.0,10.0,85,0.00,,,0.09,weatherlink.com 1.10,2013-08-12 03:23:00,
2013-08-11 23:37:00,82.2,77.0,29.88,ENE,57,5.0,10.0,85,0.00,,,0.09,weatherlink.com 1.10,2013-08-12 03:37:00,
2013-08-11 23:52:00,82.1,77.0,29.88,East,92,7.0,13.0,84,0.00,,,0.09,weatherlink.com 1.10,2013-08-12 03:52:00,